This is the latest recevied weather packets stored in our database for station/object LY3FF-10. If no packets are shown the sender has not sent any weather packets the latest 10 day(s).
| Time | Temp. | Humidity | Pressure | Rain* | Wind** | Luminosity | Snow |
|---|---|---|---|---|---|---|---|
| 1787739480 | 28.33° C | 60% | 1003.3 hPa | - | - | - | - |
| 1787738744 | 19.44° C | 57% | 1003.2 hPa | - | - | - | - |
| 1787737870 | 19.44° C | 62% | 1003.3 hPa | - | - | - | - |
| 1787737005 | 19.44° C | 61% | 1003.4 hPa | - | - | - | - |
| 1787736230 | 20° C | 62% | 1003.3 hPa | - | - | - | - |
| 1787735504 | 19.44° C | 60% | 1003.3 hPa | - | - | - | - |
| 1787734644 | 18.89° C | 64% | 1003.2 hPa | - | - | - | - |
| 1787733815 | 18.89° C | 63% | 1003 hPa | - | - | - | - |
| 1787732944 | 18.89° C | 67% | 1003 hPa | - | - | - | - |
| 1787732160 | 17.78° C | 69% | 1003 hPa | - | - | - | - |
| 1787731420 | 17.22° C | 70% | 1002.9 hPa | - | - | - | - |
| 1787730520 | 18.33° C | 72% | 1002.8 hPa | - | - | - | - |
| 1787729744 | 16.67° C | 73% | 1002.7 hPa | - | - | - | - |
| 1787729000 | 16.11° C | 74% | 1002.6 hPa | - | - | - | - |
| 1787728184 | 15.56° C | 77% | 1002.6 hPa | - | - | - | - |
| 1787727319 | 15.56° C | 79% | 1002.6 hPa | - | - | - | - |
| 1787726531 | 15° C | 81% | 1002.5 hPa | - | - | - | - |
| 1787725650 | 13.89° C | 83% | 1002.2 hPa | - | - | - | - |
| 1787724848 | 13.33° C | 83% | 1002.3 hPa | - | - | - | - |
| 1787724100 | 13.33° C | 84% | 1002.2 hPa | - | - | - | - |
| 1787723255 | 12.78° C | 84% | 1002.2 hPa | - | - | - | - |
| 1787722631 | 12.78° C | 84% | 1002.2 hPa | - | - | - | - |
| 1787722370 | 12.78° C | 84% | 1002.2 hPa | - | - | - | - |
| 1787721484 | 11.67° C | 84% | 1002.1 hPa | - | - | - | - |
| 1787720734 | 11.67° C | 84% | 1002.1 hPa | - | - | - | - |
* Rain since midnight (hover to see other rain measurements)
** Current wind speed in m/s (hover to see current wind gust speed)